Content
SEND FEEDBACK

Daily
Averages
Monthly
Summary
Brazil

RIO DE JANEIRO, RIO DE JANEIRO


Home > South America > Brazil > Rio De Janeiro
Elevation: 20 feet     Latitude: 22 49S     Longitude: 043 15W

WEATHER
 
SELECT A DAY
Number of Records: 198,022;   Date Range: 6/30/96 - 12/19/14
 
SHARE

PRINT THIS DATA

[ ← Previous Day ]
WEATHER ALMANAC - JANUARY 31, 2013
[ Next Day → ]
[ °C ]   °F
Weather ElementAverageHighLow
Temperature78.6 °F84.2 °F (12:00 pm)73.4 °F (5:00 am)
Dewpoint72 °F73.4 °F (1:00 pm)71 °F (1:00 am)
Humidity79.4 %94 % (5:00 am)65 % (4:00 pm)
Barometer29.92 in29.98 in (1:00 am)29.86 in (5:00 pm)
Wind Speed9 mph15 mph (6:00 pm)
Weather ElementAverage
Visibility7.5 mi
Wind DirectionESE (118.7 °)

Weather ElementTotal
Precipitation---
Cooling Degree Days13.8 (Base 65)
Growing Degree Days28.8 (Base 50)
Averaged from 31 records on January 31, 2013
WEATHER CONDITIONS BREAKOUT
WIND DIRECTION BREAKOUT
WEATHER BY HOUR - JANUARY 31, 2013
[ °C ]   °F
Local TimeTemperatureDewpointHumidityBarometerVisibilityWind DirectionWind SpeedGust SpeedPrecipitationEventsConditions
1:00 AM75.0 °F71.0 °F83 %29.98 in12.0 miEast (90°)8.1 mphRainLight Rain
1:00 AM75.2 °F71.6 °F89 %29.98 in6.2 miEast (90°)8.1 mphMostly Cloudy
2:00 AM75.2 °F71.6 °F89 %29.95 in6.2 miEast (100°)6.9 mphMostly Cloudy
3:00 AM75.2 °F71.6 °F89 %29.95 in6.2 miESE (110°)5.8 mphMostly Cloudy
4:00 AM75.0 °F71.0 °F85 %29.93 in12.0 miESE (110°)3.5 mphPartly Cloudy
4:00 AM75.2 °F71.6 °F89 %29.92 in6.2 miESE (110°)3.5 mphMostly Cloudy
5:00 AM73.4 °F71.6 °F94 %29.92 in6.2 miSE (140°)3.5 mphMostly Cloudy
6:00 AM73.4 °F71.6 °F94 %29.89 in6.2 miSE (140°)5.8 mphScattered Clouds
7:00 AM75.0 °F71.0 °F84 %29.92 in12.0 miEast (90°)5.8 mphMostly Cloudy
7:00 AM75.2 °F71.6 °F89 %29.92 in6.2 miEast (90°)5.8 mphMostly Cloudy
8:00 AM75.2 °F71.6 °F89 %29.92 in6.2 miNNW (340°)6.9 mphMostly Cloudy
9:00 AM78.8 °F71.6 °F78 %29.92 in6.2 miNorth (350°)4.6 mphScattered Clouds
10:00 AM81.0 °F71.0 °F66 %29.95 in12.0 miNE (40°)6.9 mphPartly Cloudy
10:00 AM80.6 °F71.6 °F74 %29.95 in6.2 miNE (40°)6.9 mphScattered Clouds
11:00 AM82.4 °F71.6 °F70 %29.95 in6.2 miEast (90°)5.8 mphScattered Clouds
12:00 PM84.2 °F71.6 °F66 %29.95 in6.2 miEast (100°)8.1 mphScattered Clouds
1:00 PM82.0 °F73.0 °F67 %29.94 in12.0 miESE (110°)11.5 mphMostly Cloudy
1:00 PM82.4 °F73.4 °F74 %29.92 in6.2 miESE (110°)11.5 mphMostly Cloudy
2:00 PM82.4 °F73.4 °F74 %29.92 in6.2 miSE (130°)12.7 mphMostly Cloudy
3:00 PM82.4 °F73.4 °F74 %29.89 in6.2 miSE (130°)13.8 mphScattered Clouds
4:00 PM83.0 °F73.0 °F65 %29.89 in12.0 miSE (130°)13.8 mphMostly Cloudy
4:00 PM82.4 °F73.4 °F74 %29.89 in6.2 miSE (130°)13.8 mphMostly Cloudy
5:00 PM82.4 °F71.6 °F70 %29.86 in6.2 miSE (140°)13.8 mphMostly Cloudy
6:00 PM80.6 °F71.6 °F74 %29.86 in6.2 miSE (130°)15.0 mphMostly Cloudy
7:00 PM80.0 °F72.0 °F70 %29.88 in9.0 miSE (130°)12.7 mphHaze
7:00 PM80.6 °F71.6 °F74 %29.86 in6.2 miSE (130°)12.7 mphMostly Cloudy
8:00 PM78.8 °F71.6 °F78 %29.89 in6.2 miESE (120°)8.1 mphMostly Cloudy
9:00 PM78.8 °F73.4 °F83 %29.92 in6.2 miNE (50°)9.2 mphMostly Cloudy
10:00 PM77.0 °F73.0 °F83 %29.94 in9.0 miENE (70°)12.7 mphMist
10:00 PM77.0 °F73.4 °F89 %29.92 in6.2 miENE (70°)12.7 mphMostly Cloudy
11:00 PM77.0 °F71.6 °F83 %29.95 in6.2 miENE (70°)9.2 mphMostly Cloudy
Hourly data recorded from SBGL, located miles away from Rio De Janeiro, Rio De Janeiro







STORIES FROM OUR PARTNERS